HIMAWARI-8

Last updated on Tue Aug 25 2026 00:02:40 GMT+0000 (Coordinated Universal Time)

1 40267U 14060A 26236.61711434 -.00000278 00000+0 00000+0 0 9992 2 40267 0.0055 61.5636 0001195 116.9548 157.1948 1.00274402 43448
UTC large
Height (km)
Speed (km/s)
/
Latitude / Longitude
Inclination (degrees)
Orbital Period (minutes)
Azimuth
Elevation
Range (km)
Doppler Factor

Next 0 passes for location: London (51.5072 / 0.1276)

No passes found over London.
HIMAWARI-8